Location: Newark
(55.7167°N, 12.5667°E)
Time: 01:29:11
(UTC+00:00)

N. Korean satellite - Pass Details

Date: 19 December 2019
Orbit: 454 x 508 km, 97.2° (Epoch: 17 January)

Event Time Altitude Azimuth Distance (km) Brightness Sun altitude
Rises 16:30:58 0° 185° (S) 2,585 10.6 -14.4°
Reaches altitude 10° 16:33:10 10° 194° (SSW) 1,699 9.8 -14.6°
Maximum altitude 16:36:35 37° 263° (W) 785 8.2 -15.1°
Drops below altitude 10° 16:39:59 10° 332° (NNW) 1,685 9.4 -15.5°
Sets 16:42:10 0° 341° (NNW) 2,561 10.3 -15.8°
